Location: Oshawa
(43.9000°N, 78.8670°W)
Time: 18:07:30
(UTC-04:00)

SPOT 5 - Visible Passes

Search period start: 28 May 2016 00:00
Search period end: 07 June 2016 00:00
Orbit: 623 x 817 km, 98.5° (Epoch: 28 May)

Date Brightness Start Highest point End Pass type
(mag) Time Alt. Az. Time Alt. Az. Time Alt. Az.
28 May 2.8 21:34:52 10° SSE 21:39:10 57° ENE 21:43:25 10° N visible
28 May 5.2 23:15:26 10° WSW 23:17:37 13° W 23:19:47 10° WNW visible
29 May 3.6 22:23:06 10° S 22:27:16 43° W 22:31:25 10° NNW visible
30 May 2.8 21:33:01 10° SSE 21:37:16 54° ENE 21:41:30 10° N visible
30 May 5.1 23:13:23 10° SW 23:15:42 14° W 23:18:01 10° WNW visible
31 May 3.5 22:21:11 10° S 22:25:22 45° W 22:29:32 10° NNW visible
01 Jun 2.9 21:31:09 10° SSE 21:35:22 52° ENE 21:39:35 10° N visible
01 Jun 5.1 23:11:19 10° SW 23:13:47 15° W 23:16:15 10° WNW visible
02 Jun 3.4 22:19:16 10° S 22:23:27 48° W 22:27:39 10° NNW visible
03 Jun 3.0 21:29:18 10° SE 21:33:28 49° ENE 21:37:40 10° N visible
03 Jun 5.1 23:09:16 10° SW 23:11:51 15° W 23:14:28 10° NW visible
04 Jun 3.3 22:17:20 10° S 22:21:32 50° W 22:25:47 10° NNW visible
05 Jun 3.0 21:27:26 10° SE 21:31:33 47° ENE 21:35:45 10° N visible
05 Jun 5.0 23:07:13 10° SW 23:09:56 16° W 23:12:41 10° NW visible
06 Jun 3.2 22:15:24 10° S 22:19:37 53° W 22:23:54 10° NNW visible
